CEB110 RPLL-RPVI

Flight info

Callsign CEB110
Flight time 0h 45m
Altitude 30000
Route VERDE2R VERDE W24 TAPER B472 LAMBO LAMBO2S
Aircraft A320/M-SDE3FGHIRWY/LB1

Departure

Time 2026-04-15 15:06
Airport Ninoy Aquino International Airport (RPLL)

Arrival

Time 2026-04-15 15:51
Airport Iloilo International Airport (RPVI)
Time Latitude Longitude Altitude Speed Heading
2026-04-15 14:47 14.50808 121.01242 68 ft 0 kts 330°
2026-04-15 14:53 14.50805 121.01244 69 ft 0 kts 331°
2026-04-15 14:53 14.50802 121.01245 60 ft 0 kts 328°
2026-04-15 14:54 14.50796 121.01249 60 ft 1 kts 329°
2026-04-15 14:54 14.50791 121.01252 60 ft 0 kts 329°
2026-04-15 14:54 14.50788 121.01254 60 ft 0 kts 329°
2026-04-15 14:55 14.50782 121.01258 61 ft 2 kts 329°
2026-04-15 14:55 14.50768 121.01266 60 ft 2 kts 327°
2026-04-15 14:55 14.50755 121.01276 59 ft 2 kts 322°
2026-04-15 14:56 14.50742 121.01287 60 ft 2 kts 295°
2026-04-15 14:56 14.50741 121.01301 64 ft 1 kts 233°
2026-04-15 14:56 14.50743 121.01303 64 ft 0 kts 239°
2026-04-15 14:59 14.50741 121.01303 64 ft 0 kts 214°
2026-04-15 14:59 14.50711 121.01312 63 ft 11 kts 154°
2026-04-15 14:59 14.50657 121.01298 69 ft 7 kts 240°
2026-04-15 14:59 14.50623 121.01233 69 ft 15 kts 240°
2026-04-15 15:00 14.50575 121.01150 67 ft 12 kts 241°
2026-04-15 15:00 14.50540 121.01086 68 ft 9 kts 243°
2026-04-15 15:00 14.50504 121.01020 66 ft 10 kts 236°
2026-04-15 15:00 14.50476 121.00970 69 ft 7 kts 241°
2026-04-15 15:01 14.50454 121.00932 60 ft 7 kts 242°
2026-04-15 15:01 14.50404 121.00843 68 ft 17 kts 237°
2026-04-15 15:01 14.50345 121.00737 65 ft 17 kts 242°
2026-04-15 15:01 14.50289 121.00635 61 ft 15 kts 242°
2026-04-15 15:02 14.50239 121.00546 59 ft 13 kts 240°
2026-04-15 15:02 14.50196 121.00469 65 ft 15 kts 241°
2026-04-15 15:02 14.50137 121.00364 66 ft 17 kts 240°
2026-04-15 15:02 14.50082 121.00265 65 ft 15 kts 240°
2026-04-15 15:03 14.50034 121.00179 65 ft 12 kts 239°
2026-04-15 15:03 14.49999 121.00115 64 ft 10 kts 240°
2026-04-15 15:03 14.49962 121.00049 65 ft 13 kts 240°
2026-04-15 15:03 14.49918 120.99978 65 ft 10 kts 223°
2026-04-15 15:04 14.49866 120.99972 66 ft 8 kts 153°
2026-04-15 15:04 14.49816 121.00002 65 ft 9 kts 135°
2026-04-15 15:04 14.49822 121.00074 65 ft 10 kts 64°
2026-04-15 15:04 14.49846 121.00115 62 ft 0 kts 60°
2026-04-15 15:05 14.49951 121.00309 65 ft 69 kts 60°
2026-04-15 15:05 14.50307 121.00947 61 ft 130 kts 60°
2026-04-15 15:05 14.50823 121.01894 125 ft 170 kts 62°
2026-04-15 15:06 14.52025 121.04067 1410 ft 173 kts 62°
2026-04-15 15:06 14.52624 121.05170 1934 ft 186 kts 62°
2026-04-15 15:06 14.53285 121.06389 2202 ft 210 kts 61°
2026-04-15 15:07 14.54058 121.07813 2560 ft 235 kts 60°
2026-04-15 15:07 14.54895 121.09349 3007 ft 255 kts 60°
2026-04-15 15:07 14.55561 121.11071 3700 ft 264 kts 82°
2026-04-15 15:07 14.55393 121.12971 4477 ft 272 kts 109°
2026-04-15 15:08 14.54376 121.14601 5254 ft 278 kts 136°
2026-04-15 15:08 14.52725 121.15660 6064 ft 283 kts 156°
2026-04-15 15:08 14.50790 121.16103 6716 ft 290 kts 178°
2026-04-15 15:08 14.48768 121.15932 7117 ft 293 kts 186°
2026-04-15 15:09 14.46831 121.15681 7894 ft 293 kts 186°
2026-04-15 15:09 14.44795 121.15402 8678 ft 296 kts 186°
2026-04-15 15:09 14.42740 121.15120 9435 ft 299 kts 186°
2026-04-15 15:09 14.40674 121.14841 10123 ft 302 kts 186°
2026-04-15 15:10 14.38536 121.14559 10439 ft 320 kts 186°
2026-04-15 15:10 14.36284 121.14050 10633 ft 341 kts 197°
2026-04-15 15:10 14.34009 121.13277 11123 ft 348 kts 198°
2026-04-15 15:10 14.31691 121.12471 11725 ft 352 kts 198°
2026-04-15 15:11 14.29306 121.11880 12326 ft 356 kts 186°
2026-04-15 15:11 14.26863 121.11600 12934 ft 359 kts 186°
2026-04-15 15:11 14.24331 121.11317 13547 ft 362 kts 186°
2026-04-15 15:11 14.21809 121.11039 14094 ft 366 kts 186°
2026-04-15 15:12 14.19265 121.10755 14614 ft 370 kts 186°
2026-04-15 15:12 14.16727 121.10463 15132 ft 373 kts 186°
2026-04-15 15:12 14.14137 121.10163 15660 ft 376 kts 186°
2026-04-15 15:12 14.11526 121.09859 16189 ft 379 kts 186°
2026-04-15 15:13 14.08898 121.09551 16719 ft 382 kts 186°
2026-04-15 15:13 14.06249 121.09246 17230 ft 385 kts 184°
2026-04-15 15:13 14.03584 121.09393 17720 ft 388 kts 166°
2026-04-15 15:13 14.01014 121.10294 18261 ft 387 kts 158°
2026-04-15 15:14 13.98516 121.10943 18724 ft 389 kts 174°
2026-04-15 15:14 13.95796 121.10828 19175 ft 392 kts 188°
2026-04-15 15:14 13.93091 121.10379 19585 ft 396 kts 188°
2026-04-15 15:14 13.90363 121.09917 20006 ft 399 kts 188°
2026-04-15 15:15 13.87628 121.09450 20441 ft 401 kts 188°
2026-04-15 15:15 13.84856 121.08977 20873 ft 404 kts 188°
2026-04-15 15:15 13.82061 121.08725 21321 ft 404 kts 175°
2026-04-15 15:15 13.79314 121.09266 21762 ft 403 kts 158°
2026-04-15 15:16 13.76739 121.10433 22165 ft 405 kts 154°
2026-04-15 15:16 13.74210 121.11655 22569 ft 408 kts 153°
2026-04-15 15:16 13.71634 121.12910 23000 ft 410 kts 153°
2026-04-15 15:16 13.69047 121.14172 23429 ft 413 kts 153°
2026-04-15 15:17 13.66449 121.15436 23775 ft 415 kts 153°
2026-04-15 15:17 13.63827 121.16705 24105 ft 417 kts 154°
2026-04-15 15:17 13.61263 121.17946 24454 ft 419 kts 154°
2026-04-15 15:17 13.58622 121.19223 24790 ft 421 kts 154°
2026-04-15 15:18 13.55975 121.20504 25122 ft 422 kts 154°
2026-04-15 15:18 13.53301 121.21796 25448 ft 424 kts 154°
2026-04-15 15:18 13.50622 121.23090 25774 ft 426 kts 154°
2026-04-15 15:18 13.47938 121.24384 26092 ft 427 kts 154°
2026-04-15 15:19 13.45241 121.25683 26409 ft 429 kts 154°
2026-04-15 15:19 13.42532 121.26989 26724 ft 430 kts 154°
2026-04-15 15:19 13.39821 121.28297 27024 ft 431 kts 154°
2026-04-15 15:19 13.37132 121.29595 27311 ft 433 kts 154°
2026-04-15 15:20 13.34363 121.30928 27596 ft 435 kts 154°
2026-04-15 15:20 13.31622 121.32247 27873 ft 436 kts 154°
2026-04-15 15:20 13.28870 121.33574 28154 ft 438 kts 155°
2026-04-15 15:20 13.26146 121.34888 28426 ft 439 kts 155°
2026-04-15 15:21 13.23370 121.36226 28690 ft 441 kts 155°
2026-04-15 15:21 13.20591 121.37564 28891 ft 442 kts 155°
2026-04-15 15:21 13.17831 121.38890 28932 ft 428 kts 155°
2026-04-15 15:21 13.15193 121.40160 28936 ft 410 kts 155°
2026-04-15 15:22 13.10062 121.42630 28939 ft 407 kts 155°
2026-04-15 15:22 13.04975 121.45076 28934 ft 407 kts 155°
2026-04-15 15:23 12.99882 121.47524 28935 ft 406 kts 155°
2026-04-15 15:23 12.94752 121.49981 28931 ft 406 kts 155°
2026-04-15 15:24 12.89663 121.52424 28935 ft 406 kts 155°
2026-04-15 15:24 12.84546 121.54886 28931 ft 405 kts 155°
2026-04-15 15:25 12.79471 121.57319 28924 ft 405 kts 155°
2026-04-15 15:25 12.74362 121.59769 28921 ft 405 kts 155°
2026-04-15 15:26 12.69255 121.62219 28923 ft 404 kts 155°
2026-04-15 15:26 12.64149 121.64662 28922 ft 404 kts 155°
2026-04-15 15:27 12.59083 121.67089 28916 ft 404 kts 155°
2026-04-15 15:27 12.54026 121.69513 28918 ft 404 kts 155°
2026-04-15 15:28 12.49791 121.71541 28918 ft 404 kts 155°
2026-04-15 15:28 12.44701 121.73972 28916 ft 404 kts 155°
2026-04-15 15:29 12.39678 121.76372 28915 ft 404 kts 155°
2026-04-15 15:29 12.34593 121.78804 28913 ft 404 kts 155°
2026-04-15 15:30 12.29486 121.81242 28918 ft 404 kts 155°
2026-04-15 15:30 12.24427 121.83657 28918 ft 404 kts 155°
2026-04-15 15:31 12.19418 121.86047 28913 ft 404 kts 155°
2026-04-15 15:31 12.14331 121.88474 28910 ft 404 kts 155°
2026-04-15 15:32 12.09211 121.90911 28414 ft 408 kts 155°
2026-04-15 15:32 12.06647 121.92132 27930 ft 404 kts 155°
2026-04-15 15:32 12.04146 121.93322 27517 ft 399 kts 155°
2026-04-15 15:33 12.01640 121.94516 27055 ft 395 kts 154°
2026-04-15 15:33 11.99156 121.95698 26616 ft 392 kts 154°
2026-04-15 15:33 11.96692 121.96871 26156 ft 389 kts 154°
2026-04-15 15:33 11.94817 121.97765 25799 ft 387 kts 154°
2026-04-15 15:34 11.92574 121.98832 25388 ft 385 kts 154°
2026-04-15 15:34 11.90156 121.99984 25008 ft 380 kts 154°
2026-04-15 15:34 11.87782 122.01118 24603 ft 376 kts 154°
2026-04-15 15:34 11.85395 122.02259 23952 ft 381 kts 154°
2026-04-15 15:35 11.82996 122.03402 23469 ft 380 kts 153°
2026-04-15 15:35 11.80599 122.04542 22938 ft 379 kts 153°
2026-04-15 15:35 11.78218 122.05676 22455 ft 376 kts 153°
2026-04-15 15:35 11.75855 122.06799 21990 ft 373 kts 153°
2026-04-15 15:36 11.73506 122.07915 21532 ft 371 kts 153°
2026-04-15 15:36 11.71385 122.08924 21119 ft 369 kts 153°
2026-04-15 15:36 11.69065 122.10026 20668 ft 367 kts 153°
2026-04-15 15:36 11.66759 122.11122 20221 ft 365 kts 153°
2026-04-15 15:37 11.64511 122.12189 19790 ft 363 kts 153°
2026-04-15 15:37 11.62252 122.13264 19353 ft 362 kts 153°
2026-04-15 15:37 11.59972 122.14347 18914 ft 360 kts 153°
2026-04-15 15:37 11.57702 122.15424 18479 ft 360 kts 153°
2026-04-15 15:38 11.55433 122.16500 18009 ft 359 kts 153°
2026-04-15 15:38 11.53168 122.17576 17559 ft 358 kts 153°
2026-04-15 15:38 11.50917 122.18644 17140 ft 356 kts 153°
2026-04-15 15:38 11.48682 122.19703 16725 ft 354 kts 153°
2026-04-15 15:39 11.46456 122.20757 16301 ft 352 kts 153°
2026-04-15 15:39 11.44240 122.21807 15899 ft 350 kts 153°
2026-04-15 15:39 11.42038 122.22849 15489 ft 348 kts 153°
2026-04-15 15:39 11.39845 122.23891 15087 ft 346 kts 153°
2026-04-15 15:40 11.37688 122.24915 14691 ft 345 kts 153°
2026-04-15 15:40 11.35516 122.25945 14329 ft 342 kts 153°
2026-04-15 15:40 11.33397 122.26948 14221 ft 331 kts 153°
2026-04-15 15:40 11.31326 122.27928 14032 ft 324 kts 153°
2026-04-15 15:41 11.29295 122.28889 13717 ft 321 kts 153°
2026-04-15 15:41 11.27271 122.29846 13329 ft 319 kts 153°
2026-04-15 15:41 11.25253 122.30802 12823 ft 321 kts 153°
2026-04-15 15:41 11.23264 122.31746 12196 ft 328 kts 153°
2026-04-15 15:42 11.21176 122.32739 11584 ft 333 kts 154°
2026-04-15 15:42 11.19118 122.33790 11206 ft 328 kts 145°
2026-04-15 15:42 11.17466 122.35354 10777 ft 323 kts 123°
2026-04-15 15:42 11.16506 122.37374 10559 ft 311 kts 103°
2026-04-15 15:43 11.16254 122.39486 10382 ft 300 kts 89°
2026-04-15 15:43 11.16264 122.41600 10031 ft 298 kts 89°
2026-04-15 15:43 11.16277 122.43711 9495 ft 301 kts 89°
2026-04-15 15:43 11.16292 122.45880 8783 ft 309 kts 89°
2026-04-15 15:44 11.16306 122.48033 8619 ft 298 kts 89°
2026-04-15 15:44 11.16319 122.50095 8446 ft 287 kts 89°
2026-04-15 15:44 11.16279 122.52119 7976 ft 288 kts 97°
2026-04-15 15:44 11.15771 122.54091 7547 ft 288 kts 111°
2026-04-15 15:45 11.15043 122.55971 7079 ft 282 kts 110°
2026-04-15 15:45 11.14320 122.57759 6732 ft 267 kts 118°
2026-04-15 15:45 11.13091 122.59097 6289 ft 258 kts 151°
2026-04-15 15:45 11.11393 122.59555 5822 ft 255 kts 181°
2026-04-15 15:46 11.09686 122.59132 5275 ft 254 kts 199°
2026-04-15 15:46 11.08007 122.58500 4775 ft 261 kts 199°
2026-04-15 15:46 11.06284 122.57845 4521 ft 261 kts 198°
2026-04-15 15:46 11.04614 122.57223 4214 ft 250 kts 198°
2026-04-15 15:47 11.03002 122.56627 3895 ft 243 kts 198°
2026-04-15 15:47 11.01434 122.56047 3593 ft 235 kts 198°
2026-04-15 15:47 10.99945 122.55495 3311 ft 226 kts 198°
2026-04-15 15:47 10.98478 122.54952 3027 ft 219 kts 197°
2026-04-15 15:48 10.97090 122.54438 2763 ft 212 kts 198°
2026-04-15 15:48 10.95732 122.53935 2480 ft 202 kts 198°
2026-04-15 15:48 10.94442 122.53457 2219 ft 193 kts 197°
2026-04-15 15:48 10.93213 122.53003 1972 ft 182 kts 198°
2026-04-15 15:49 10.92067 122.52578 1760 ft 168 kts 199°
2026-04-15 15:49 10.91002 122.52185 1548 ft 161 kts 199°
2026-04-15 15:49 10.89953 122.51797 1333 ft 159 kts 199°
2026-04-15 15:49 10.88917 122.51414 1127 ft 157 kts 199°
2026-04-15 15:50 10.87905 122.51039 931 ft 153 kts 199°
2026-04-15 15:50 10.86912 122.50672 735 ft 152 kts 200°
2026-04-15 15:50 10.85909 122.50301 533 ft 151 kts 200°
2026-04-15 15:50 10.84921 122.49932 311 ft 150 kts 200°
2026-04-15 15:51 10.83947 122.49571 159 ft 150 kts 199°
2026-04-15 15:51 10.82978 122.49214 141 ft 134 kts 199°
2026-04-15 15:51 10.82355 122.48989 143 ft 58 kts 198°
2026-04-15 15:51 10.82289 122.48966 143 ft 0 kts 201°